Temperature
21 21 21 21 20 20 20 20 20 20 19 19 19 18 18 18 18 18 18 18 18 18 17 17 17 17 17 17 17 17 17 16 16 15 15 15 14 14 14 14 14 14 14
21 21 21 21 20 20 20 20 20 20 19 19 19 18 18 18 18 18 18 18 17 17 17 17 17 17 17 17 17 16 16 16 16 15 15 14 14 14 14 14 14 13 13
21 21 21 20 20 20 20 20 19 19 19 19 19 18 18 18 18 18 18 17 17 17 17 17 17 17 17 17 16 16 16 16 16 15 15 14 14 14 14 14 13 13 13
21 21 21 21 20 20 20 20 19 19 19 19 19 18 18 18 18 17 17 17 17 17 17 17 17 17 17 17 16 16 16 16 15 15 15 14 14 14 14 13 13 13 13
22 21 21 21 20 20 20 19 19 19 19 19 19 18 18 18 18 18 17 17 17 17 17 17 17 17 17 16 16 16 16 15 15 15 15 14 14 14 14 13 13 13 13
21 21 21 20 20 20 19 19 19 19 19 19 18 18 18 18 18 18 17 17 17 17 17 17 17 16 16 16 16 16 15 15 15 15 14 14 14 14 14 13 13 13 12
21 21 20 20 20 19 19 19 19 19 19 19 18 18 18 18 18 18 17 17 17 17 17 16 16 16 16 16 16 16 15 15 15 15 14 14 14 14 14 13 13 13 13
21 20 20 20 19 19 19 19 19 18 18 18 18 18 18 18 18 18 17 17 17 17 16 16 16 16 16 16 16 15 15 15 15 14 14 14 14 14 14 13 13 13 13
20 20 20 20 19 19 19 19 19 18 18 18 18 18 18 18 18 17 17 17 16 16 16 16 15 15 15 15 15 15 15 15 14 14 14 14 14 14 13 13 13 12 12
20 20 20 19 19 19 19 19 19 18 18 18 18 18 18 18 18 17 17 16 16 16 16 15 15 15 15 15 15 15 14 14 14 14 14 14 14 13 13 13 13 12 12
20 19 19 19 19 19 18 18 18 18 18 17 17 18 17 17 17 17 17 16 16 15 15 15 15 15 15 15 14 14 14 14 14 14 13 13 13 13 13 13 13 12 12
19 19 19 18 18 18 18 18 18 17 17 17 17 17 17 17 17 17 16 16 16 15 15 15 15 15 15 14 14 14 14 13 13 13 13 13 13 13 13 13 12 12 12
19 18 18 18 18 18 18 17 17 17 17 17 17 16 17 17 16 16 16 16 15 15 15 15 15 15 14 14 14 14 13 13 13 13 13 13 13 13 12 12 12 12 12
18 18 17 17 17 17 17 17 17 17 17 16 16 16 16 16 16 16 16 15 15 15 15 14 14 14 14 14 14 13 13 13 13 12 12 12 12 12 12 12 12 12 12
17 17 17 16 17 17 17 17 17 17 17 16 16 16 16 16 16 16 15 15 15 14 14 14 14 14 14 14 13 13 13 13 12 12 12 12 12 12 12 12 12 11 11
16 16 16 16 16 16 16 16 16 16 16 16 16 16 16 16 15 15 15 15 14 14 14 14 14 13 13 13 13 13 13 12 12 12 12 12 12 12 11 11 11 11 11
16 16 16 16 16 16 16 16 16 16 16 16 16 16 16 15 15 15 15 14 14 14 14 13 13 13 13 13 13 13 12 12 12 12 12 11 11 11 11 11 11 11 11
16 16 16 16 16 16 16 16 16 16 16 15 15 15 15 15 15 15 14 14 14 13 13 13 13 13 13 12 12 12 12 12 12 12 11 11 11 11 11 11 11 11 11
15 15 16 16 16 16 16 16 16 16 15 15 15 15 15 15 14 14 14 13 13 13 13 13 13 13 12 12 12 12 12 12 12 11 11 11 11 11 11 11 11 11 11
15 16 15 16 16 16 16 16 16 15 15 15 15 15 15 14 14 14 14 13 13 13 13 13 13 13 12 12 12 12 12 12 12 11 11 11 11 11 11 11 11 11 11
15 15 15 16 15 16 16 15 15 15 15 15 14 14 14 14 14 14 13 13 13 13 13 13 13 12 12 12 12 12 12 12 11 11 11 11 11 11 10 10 10 10 10
15 15 15 15 15 15 15 15 15 15 15 14 14 14 14 13 13 13 13 13 13 13 13 12 12 12 12 12 12 12 12 11 11 11 11 11 10 10 10 10 10 10 10
15 15 15 15 15 15 15 15 15 15 15 14 14 14 13 13 13 13 13 13 13 12 12 12 12 12 12 12 11 11 11 11 11 11 11 10 10 10 10 10 10 10 10
15 15 15 15 15 15 15 15 15 14 14 14 14 13 13 13 13 13 12 12 12 12 12 12 12 12 11 11 11 11 11 11 11 10 10 10 10 10 9 9 9 9 9
15 15 15 15 15 15 15 15 14 14 14 14 13 13 13 13 13 12 12 12 12 12 11 11 11 11 11 11 11 11 10 10 10 10 10 10 9 9 9 9 9 9 9
15 15 15 15 15 14 14 14 14 14 14 13 13 13 13 13 12 12 12 12 11 11 11 11 11 11 11 10 10 10 10 10 10 10 10 9 9 9 9 9 9 9 9
Wind_Speed
9 7 7 7 6 5 4 3 3 3 3 2 2 2 2 1 1 0 1 1 1 1 1 1 1 1 0 1 1 1 1 2 3 2 3 3 4 4 6 7 7 8 8
9 8 7 7 7 6 5 5 4 4 4 3 2 2 2 2 1 1 0 1 0 1 1 1 1 1 1 0 0 0 1 2 4 4 3 3 3 4 5 5 6 6 8
11 10 8 7 7 6 5 5 5 4 3 3 3 2 1 1 1 1 1 1 0 1 1 1 1 1 1 1 0 1 1 2 3 4 3 3 3 3 3 3 3 4 6
11 10 9 8 7 6 5 5 5 4 4 3 3 3 2 1 0 0 1 2 1 1 2 2 2 1 1 1 1 1 1 2 3 3 4 3 3 3 3 2 2 2 3
8 9 9 8 7 6 6 5 5 5 5 4 3 3 3 2 2 1 1 2 2 1 1 1 3 4 5 3 1 1 1 1 2 3 4 4 3 3 3 3 3 3 3
7 7 8 7 7 7 6 5 5 5 4 4 4 4 3 2 3 4 1 1 1 1 1 2 3 4 4 4 4 4 2 2 2 2 3 4 4 3 3 3 3 3 3
6 6 6 7 7 6 7 6 5 5 4 4 4 4 3 3 4 4 2 1 2 1 1 1 1 2 4 3 3 3 2 2 3 3 2 2 3 3 4 4 3 4 3
6 6 5 6 5 5 5 5 5 4 4 4 4 4 3 4 5 4 2 2 2 2 1 1 1 2 2 2 2 2 1 0 0 1 1 1 2 1 2 3 3 3 2
6 6 6 6 6 6 5 5 5 4 4 4 4 4 3 3 5 4 3 3 3 2 2 1 2 3 3 2 2 2 2 1 1 2 3 2 3 4 3 1 2 2 3
5 5 6 6 6 6 5 5 4 4 5 5 4 4 4 3 5 5 4 3 3 3 3 3 3 3 4 3 2 2 3 3 2 2 2 2 3 5 6 4 3 3 3
3 4 4 4 4 4 4 4 4 5 5 4 4 4 4 5 6 7 6 3 3 3 3 3 3 6 5 4 3 3 3 2 3 3 4 4 3 3 4 5 5 3 3
3 3 3 3 4 4 4 3 3 3 4 4 4 4 3 4 5 7 7 5 3 2 2 1 2 6 6 6 4 4 3 2 2 3 3 3 4 4 4 4 5 5 4
3 2 2 3 2 3 4 4 4 4 4 4 4 4 3 3 4 6 7 6 5 3 2 0 3 5 4 4 6 6 4 3 3 4 4 4 4 3 2 2 3 4 5
3 2 2 3 3 3 3 3 4 3 3 3 3 3 3 3 3 3 3 4 4 3 3 2 4 5 5 4 3 4 5 5 4 4 3 3 3 3 3 3 4 4 4
4 3 3 4 3 3 3 2 2 2 2 3 2 2 2 3 3 4 4 3 3 3 3 3 3 3 4 4 4 4 4 4 5 4 4 4 3 3 3 3 3 4 5
4 4 4 4 4 4 4 2 3 1 3 3 2 2 1 3 6 5 4 3 2 3 3 4 4 4 5 5 5 5 5 5 5 5 5 4 4 4 4 4 4 4 5
3 3 3 3 3 4 4 4 3 1 1 2 3 3 4 5 6 6 5 4 4 4 4 5 5 4 4 5 5 5 5 5 4 5 5 5 5 4 4 4 4 5 6
2 3 3 3 3 4 4 4 4 5 4 3 2 4 5 6 6 6 5 3 3 4 5 6 5 4 4 5 5 5 4 4 4 4 5 4 4 4 4 4 5 6 6
3 3 3 3 3 4 3 4 4 4 4 4 3 3 4 4 4 5 6 4 5 5 6 6 5 5 5 4 5 4 4 4 4 4 4 4 4 5 5 5 5 7 6
2 3 3 3 4 3 3 3 3 3 3 3 3 3 3 3 2 3 5 5 5 6 6 6 5 5 5 4 4 4 4 4 4 4 4 4 4 5 6 6 6 5 5
3 3 4 4 4 3 2 3 2 3 3 3 2 3 5 5 5 5 6 6 6 7 6 6 5 4 4 4 3 4 4 4 3 3 4 4 4 4 5 5 5 5 4
3 3 3 3 3 2 3 3 3 3 3 3 2 3 6 4 4 4 4 5 6 5 5 5 5 4 3 3 3 3 3 3 3 3 3 4 4 5 5 5 5 5 5
4 3 2 3 2 2 3 3 3 3 3 3 3 2 3 3 4 4 4 4 3 4 4 3 3 3 2 2 2 1 1 3 3 3 3 4 4 4 4 5 6 6 6
4 3 3 2 2 2 3 3 2 3 3 3 3 3 2 3 3 4 3 3 3 3 3 2 3 3 2 1 1 1 1 2 3 3 4 4 4 4 4 4 5 6 6
3 2 2 2 2 2 2 2 2 2 2 2 2 2 3 3 3 3 3 3 3 2 3 3 2 2 2 1 1 1 2 2 3 4 4 4 5 5 4 5 5 6 5
2 2 2 2 2 2 2 2 2 2 2 2 2 2 2 2 2 2 2 2 2 2 3 3 3 3 1 1 1 1 2 2 3 4 4 4 5 4 4 4 5 4 4
Wind_Direction
174 173 171 168 176 173 174 175 163 147 145 151 168 167 154 131 133 164 188 140 160 187 209 172 176 159 177 221 200 217 178 149 143 139 135 141 142 138 142 150 159 153 151
173 169 175 170 168 176 179 175 166 163 166 171 184 184 177 152 144 151 160 108 157 206 221 158 162 154 152 300 330 121 128 144 148 148 146 150 152 155 166 176 171 162 156
172 171 173 176 176 176 171 171 167 169 174 179 180 179 181 173 163 147 128 113 106 112 109 152 138 137 145 95 21 108 140 144 141 152 158 161 161 169 166 185 167 155 158
171 172 172 178 177 175 174 173 170 173 177 186 186 181 187 178 153 190 161 139 110 87 77 73 85 98 100 90 148 121 134 136 148 160 158 163 168 169 166 184 176 184 173
165 170 173 174 173 173 175 176 178 184 188 184 180 179 181 179 179 169 195 154 143 137 112 100 88 91 81 65 89 87 124 146 163 158 159 161 166 174 192 195 184 191 196
164 173 170 170 174 177 176 177 181 184 183 182 180 179 191 197 114 104 94 117 127 149 152 135 132 121 107 96 87 84 102 170 179 173 176 170 175 189 190 200 192 202 215
171 172 170 171 176 180 184 179 183 185 183 184 186 172 157 131 128 115 105 186 178 177 177 185 216 133 134 129 116 110 94 128 172 187 179 179 181 193 193 210 213 216 227
169 172 173 176 178 178 178 181 185 186 185 191 189 177 171 172 168 158 170 219 199 183 186 171 146 135 137 122 167 166 179 133 212 169 149 171 174 172 207 220 224 224 226
169 171 179 180 179 182 188 188 187 184 186 193 187 185 182 177 185 178 186 216 201 201 199 196 176 140 127 116 169 182 190 210 156 124 130 144 173 177 188 227 244 230 243
177 178 180 180 182 183 185 191 187 186 191 197 193 189 177 170 184 185 199 231 213 203 199 180 159 152 159 167 214 217 218 224 209 194 210 213 209 204 201 209 224 234 249
160 163 164 166 172 177 178 185 189 196 193 195 190 191 184 177 184 189 192 227 248 236 210 198 176 169 184 200 225 240 229 242 242 223 218 213 211 215 207 211 213 219 241
138 147 159 162 185 175 156 168 183 193 193 203 201 206 197 178 179 187 192 215 251 281 274 229 169 175 195 211 222 226 227 244 247 242 231 223 214 216 216 213 210 217 223
129 143 153 166 186 161 170 180 189 194 204 209 206 208 201 185 177 182 196 218 232 252 293 34 162 190 204 221 222 222 223 233 241 249 245 234 225 218 209 210 216 225 238
147 158 173 188 183 169 182 190 200 197 205 215 217 209 193 181 173 178 194 209 216 226 254 207 190 209 229 235 223 220 225 235 234 241 256 253 225 208 210 213 222 220 227
166 176 194 203 188 178 188 190 204 193 201 216 227 211 216 206 187 176 191 204 214 209 202 208 215 211 221 226 225 221 224 232 238 244 255 262 249 226 223 225 228 232 229
179 195 202 199 189 190 185 166 47 81 134 124 116 159 180 163 161 160 169 183 196 174 192 223 225 221 227 229 228 228 223 225 231 231 237 244 249 245 234 228 228 230 237
194 213 221 217 201 200 199 198 192 158 84 123 137 140 155 163 168 172 182 194 194 176 209 234 237 234 238 242 238 238 234 225 223 228 232 239 243 249 249 240 233 237 239
210 223 242 229 218 217 213 216 210 204 204 212 197 183 175 179 181 176 173 168 209 208 229 240 242 241 242 246 247 248 244 235 227 232 234 240 244 250 253 247 240 241 244
229 233 245 251 235 225 220 226 232 226 218 212 193 190 199 186 178 180 180 212 231 234 239 244 242 243 246 246 245 241 236 234 233 238 238 235 240 247 254 256 253 249 244
233 254 246 253 247 235 228 234 237 237 241 231 212 186 172 176 200 200 204 224 234 242 247 250 250 247 248 253 250 241 241 240 237 239 243 240 241 247 253 256 257 253 248
234 236 234 240 243 242 247 252 256 254 249 250 235 181 188 211 217 217 216 220 228 237 239 247 252 254 253 249 251 253 252 252 252 255 253 248 250 256 258 257 253 249 248
250 239 227 244 249 249 252 250 252 260 267 267 243 195 199 222 239 238 234 228 230 236 239 244 256 263 274 280 274 270 271 272 266 259 261 263 261 257 254 251 251 253 252
262 247 231 242 254 241 256 261 258 259 264 265 268 249 224 246 258 264 262 260 250 247 250 245 257 270 269 273 278 268 257 272 272 263 260 262 264 263 263 256 252 251 249
269 260 250 248 255 257 271 278 278 278 271 268 265 260 251 249 261 268 273 267 258 265 276 269 265 274 280 285 292 311 339 316 298 283 273 269 268 269 267 266 264 259 255
271 286 287 281 283 289 294 298 297 291 287 280 277 271 266 259 262 272 284 292 292 284 289 289 293 281 287 310 332 314 322 337 328 306 289 278 267 261 264 269 268 266 261
284 310 320 319 319 315 307 306 310 311 298 292 291 287 278 277 275 284 292 299 296 295 294 296 312 328 355 342 332 342 338 314 303 296 280 274 274 274 277 274 274 271 268
Height
1521 1523 1525 1526 1528 1529 1530 1532 1532 1533 1534 1535 1536 1536 1537 1537 1536 1536 1536 1536 1536 1536 1536 1536 1536 1536 1537 1537 1538 1538 1539 1539 1539 1541 1541 1542 1542 1543 1542 1542 1542 1542 1541
1519 1522 1524 1525 1527 1528 1529 1530 1531 1532 1533 1534 1534 1535 1536 1536 1536 1536 1535 1535 1535 1535 1534 1534 1534 1535 1535 1536 1536 1537 1537 1538 1538 1539 1540 1540 1541 1541 1541 1541 1541 1541 1541
1518 1520 1522 1524 1525 1527 1528 1530 1530 1531 1532 1533 1533 1534 1534 1535 1535 1534 1534 1534 1534 1534 1533 1533 1533 1533 1533 1534 1534 1535 1535 1536 1537 1537 1538 1539 1540 1540 1540 1540 1541 1540 1540
1516 1517 1519 1521 1523 1525 1526 1528 1529 1530 1531 1532 1532 1533 1533 1533 1533 1533 1533 1533 1533 1533 1533 1532 1532 1532 1531 1532 1532 1533 1534 1535 1535 1536 1536 1537 1538 1538 1539 1538 1539 1539 1539
1513 1515 1517 1519 1521 1523 1524 1526 1527 1528 1530 1530 1531 1531 1532 1532 1532 1532 1532 1532 1532 1532 1531 1531 1531 1531 1530 1530 1531 1531 1532 1533 1534 1534 1535 1535 1536 1536 1536 1537 1538 1538 1538
1511 1513 1515 1517 1519 1521 1522 1524 1525 1526 1527 1528 1529 1529 1530 1531 1531 1531 1531 1531 1531 1531 1530 1530 1530 1530 1529 1529 1530 1530 1531 1531 1532 1533 1533 1533 1533 1534 1535 1535 1536 1536 1536
1508 1510 1512 1514 1516 1518 1520 1521 1523 1524 1525 1526 1526 1527 1528 1528 1529 1529 1529 1529 1529 1529 1529 1529 1529 1529 1528 1528 1528 1529 1529 1530 1531 1531 1531 1531 1532 1532 1533 1533 1533 1534 1533
1508 1510 1511 1512 1513 1515 1517 1518 1520 1522 1523 1524 1525 1525 1525 1526 1526 1527 1527 1527 1527 1527 1527 1527 1527 1527 1527 1527 1526 1526 1527 1528 1529 1529 1529 1529 1530 1530 1531 1531 1531 1531 1532
1505 1507 1509 1511 1511 1512 1514 1515 1517 1518 1520 1521 1522 1522 1523 1523 1524 1524 1525 1525 1525 1525 1525 1525 1525 1525 1525 1525 1525 1525 1525 1525 1526 1527 1527 1527 1527 1528 1528 1528 1528 1528 1528
1502 1504 1505 1507 1509 1510 1511 1512 1514 1515 1516 1518 1518 1519 1520 1521 1521 1522 1522 1522 1522 1522 1522 1523 1523 1523 1523 1523 1523 1523 1522 1523 1523 1523 1524 1524 1525 1525 1525 1525 1525 1525 1525
1499 1501 1503 1504 1506 1507 1508 1510 1511 1512 1513 1514 1514 1516 1517 1517 1518 1519 1519 1519 1519 1520 1520 1519 1519 1520 1520 1521 1521 1521 1521 1521 1521 1521 1521 1521 1521 1521 1521 1521 1521 1522 1522
1496 1498 1499 1500 1503 1505 1506 1507 1508 1509 1510 1511 1512 1513 1514 1514 1515 1515 1516 1516 1517 1517 1517 1517 1517 1517 1517 1518 1518 1518 1518 1518 1518 1518 1518 1518 1518 1517 1517 1518 1518 1518 1519
1494 1496 1497 1498 1500 1502 1503 1504 1505 1506 1507 1509 1510 1510 1510 1511 1511 1512 1512 1513 1513 1514 1514 1514 1514 1514 1514 1514 1514 1514 1515 1515 1514 1514 1514 1514 1514 1514 1515 1514 1514 1515 1515
1492 1494 1495 1497 1498 1499 1501 1502 1503 1504 1505 1506 1507 1507 1508 1508 1508 1508 1508 1509 1510 1510 1510 1511 1511 1511 1511 1511 1511 1510 1511 1511 1511 1511 1511 1511 1511 1511 1511 1511 1510 1511 1510
1490 1492 1493 1495 1496 1498 1499 1500 1501 1502 1503 1504 1504 1505 1505 1504 1504 1505 1505 1505 1506 1506 1507 1507 1507 1507 1507 1507 1507 1507 1507 1507 1507 1507 1507 1507 1507 1507 1506 1507 1507 1507 1507
1488 1490 1492 1493 1494 1496 1497 1498 1498 1500 1500 1501 1501 1502 1501 1502 1501 1502 1502 1503 1503 1504 1504 1503 1503 1503 1503 1503 1503 1503 1503 1502 1503 1503 1503 1503 1503 1503 1502 1502 1502 1502 1502
1487 1488 1490 1491 1492 1493 1494 1495 1495 1496 1497 1497 1498 1498 1498 1498 1498 1498 1499 1499 1500 1500 1500 1500 1500 1499 1499 1500 1500 1500 1499 1499 1499 1499 1499 1499 1498 1498 1498 1498 1498 1498 1497
1485 1487 1488 1489 1490 1490 1491 1492 1492 1492 1492 1492 1493 1494 1494 1494 1494 1495 1495 1495 1495 1496 1496 1496 1496 1496 1496 1496 1496 1496 1496 1495 1495 1495 1494 1494 1494 1494 1494 1493 1493 1493 1493
1484 1485 1486 1487 1488 1488 1489 1489 1490 1490 1489 1489 1489 1489 1490 1490 1490 1491 1491 1491 1491 1491 1492 1492 1492 1492 1492 1492 1492 1492 1491 1491 1490 1490 1490 1490 1489 1489 1489 1489 1489 1488 1488
1482 1483 1484 1485 1486 1486 1486 1486 1486 1487 1487 1487 1486 1486 1486 1486 1486 1486 1487 1487 1487 1488 1488 1488 1488 1488 1488 1488 1488 1487 1487 1486 1486 1485 1485 1485 1484 1484 1484 1484 1484 1483 1483
1480 1481 1482 1482 1483 1483 1483 1483 1484 1484 1484 1484 1483 1483 1482 1483 1483 1483 1483 1483 1483 1483 1484 1484 1484 1484 1483 1483 1483 1482 1482 1481 1481 1480 1480 1479 1479 1479 1479 1478 1478 1478 1477
1479 1479 1480 1480 1480 1480 1480 1480 1481 1481 1480 1480 1479 1479 1480 1480 1480 1480 1480 1479 1479 1479 1479 1480 1479 1479 1478 1478 1478 1477 1476 1476 1476 1475 1475 1474 1474 1474 1473 1473 1472 1472 1472
1477 1477 1477 1478 1478 1478 1478 1478 1478 1478 1477 1477 1478 1477 1477 1477 1477 1476 1476 1475 1475 1475 1475 1475 1475 1474 1474 1473 1473 1472 1471 1471 1471 1470 1470 1470 1469 1469 1468 1468 1467 1467 1467
1475 1475 1475 1475 1475 1475 1475 1475 1475 1475 1475 1474 1474 1474 1474 1473 1473 1473 1473 1472 1471 1471 1471 1471 1470 1469 1469 1468 1468 1467 1467 1466 1466 1466 1465 1465 1464 1463 1463 1462 1462 1461 1461
1473 1473 1473 1473 1473 1473 1473 1473 1472 1472 1472 1472 1472 1471 1470 1470 1470 1469 1469 1468 1467 1467 1467 1467 1466 1465 1464 1463 1463 1462 1462 1461 1461 1461 1460 1460 1459 1459 1458 1457 1456 1456 1455
1471 1471 1471 1471 1470 1471 1470 1470 1470 1469 1469 1469 1469 1468 1467 1467 1466 1465 1465 1464 1463 1463 1463 1462 1461 1461 1459 1459 1458 1457 1457 1457 1456 1456 1455 1455 1454 1454 1454 1453 1452 1451 1450